Station TAWM4 - Tawas Point, MI Image indicating link to RSS feed of recent meteorological observations for station TAWM4


Conditions at TAWM4 as of
(9:40 pm EDT on 06/22/2024)
0140 GMT on 06/23/2024:
     

Click on the graph icon in the table below to see a time series plot of the last five days of that observation.

5-day plot - Wind Direction Wind Direction (WDIR): S ( 190 deg true )
5-day plot - Wind Speed Wind Speed (WSPD): 1.9 kts
5-day plot - Wind Gust Wind Gust (GST): 2.9 kts
5-day plot - Atmospheric Pressure Atmospheric Pressure (PRES):29.72 in
5-day plot - Air Temperature Air Temperature (ATMP): 67.5 °F
5-day plot - Wind Speed at 10 Meters Wind Speed at 10 meters (WSPD10M): 1.9 kts
5-day plot - Wind Speed at 20 Meters Wind Speed at 20 meters (WSPD20M): 1.9 kts
5-day plot -  Wind Speed, Wind Gust and Atmospheric Pressure Combined plot of Wind Speed, Gust, and Air Pressure
Previous observations
TIME
(EDT)
5-day plot - Wind Direction
WDIR
 
5-day plot - Wind Speed
WSPD
kts
5-day plot - Wind Gust
GST
kts
5-day plot - Wave Height
WVHT
ft
5-day plot - Dominant Wave Period
DPD
sec
5-day plot - Average Wave Period
APD
sec
5-day plot - Mean Wave Direction
MWD
 
5-day plot - Atmospheric Pressure
PRES
in
5-day plot - Pressure Tendency
PTDY
in
5-day plot - Air Temperature
ATMP
°F
5-day plot - Water Temperature
WTMP
°F
5-day plot - Dew Point
DEWP
°F
5-day plot - Salinity
SAL
psu
5-day plot - Visibility
VIS
nmi
5-day plot - Tide (above MLLW)
TIDE
ft
2024-06-22 09:30 pm S 1.9 5.1----29.72- 67.3-----
2024-06-22 09:20 pm S 2.9 6.0----29.71- 67.1-----
2024-06-22 09:10 pm S 2.9 5.1----29.72- 66.7-----
2024-06-22 09:00 pmSSE 1.9 5.1----29.73-0.08 66.6-----
2024-06-22 08:50 pmSSE 2.9 8.0----29.73- 66.4-----
2024-06-22 08:40 pm SE 6.0 8.0----29.72- 65.8-----
2024-06-22 08:30 pm SE 4.1 8.9----29.72- 65.8-----
2024-06-22 08:20 pm SE 8.9 12.0----29.74- 66.0-----
2024-06-22 08:10 pm SE 8.0 9.9----29.76- 66.0-----
2024-06-22 08:00 pm SE 6.0 11.1----29.76-0.07 66.0-----
2024-06-22 07:50 pm SE 5.1 6.0----29.76- 66.2-----
2024-06-22 07:40 pm SE 2.9 5.1----29.76- 66.4-----
2024-06-22 07:30 pmESE 1.9 6.0----29.77- 66.4-----
2024-06-22 07:20 pmESE 4.1 7.0----29.78- 66.4-----
2024-06-22 07:10 pmESE 2.9 7.0----29.79- 66.0-----
2024-06-22 07:00 pm E 5.1 7.0----29.78-0.09 65.7-----
2024-06-22 06:50 pm E 5.1 8.9----29.78- 65.7-----
2024-06-22 06:40 pm E 6.0 8.9----29.79- 65.5-----
2024-06-22 06:30 pmENE 1.9 5.1----29.81- 65.3-----
2024-06-22 06:20 pmESE 1.9 8.0----29.82- 64.9-----
2024-06-22 06:10 pm E 7.0 8.9----29.81- 66.2-----
2024-06-22 06:00 pmENE 4.1 8.0----29.81-0.10 65.8-----
2024-06-22 05:50 pm NE 4.1 8.9----29.83- 65.8-----
2024-06-22 05:40 pmENE 5.1 9.9----29.83- 65.1-----
2024-06-22 05:30 pm NE 2.9 8.9----29.82- 64.4-----
2024-06-22 05:20 pmENE 4.1 8.0----29.82- 64.2-----
2024-06-22 05:10 pmENE 5.1 9.9----29.83- 63.7-----
2024-06-22 05:00 pmENE 5.1 8.9----29.83-0.11 63.5-----
2024-06-22 04:50 pmENE 6.0 9.9----29.83- 63.5-----
2024-06-22 04:40 pmENE 6.0 11.1----29.83- 63.7-----
2024-06-22 04:30 pmENE 6.0 9.9----29.85- 63.9-----
2024-06-22 04:20 pmENE 7.0 11.1----29.86- 63.9-----
2024-06-22 04:10 pmENE 6.0 9.9----29.87- 64.2-----
2024-06-22 04:00 pmENE 7.0 9.9----29.87-0.10 64.4-----
2024-06-22 03:50 pmENE 5.1 9.9----29.88- 64.6-----
2024-06-22 03:40 pmENE 4.1 9.9----29.88- 64.2-----
2024-06-22 03:30 pmENE 6.0 9.9----29.88- 64.2-----
2024-06-22 03:20 pmENE 5.1 8.0----29.90- 64.4-----
2024-06-22 03:10 pmENE 4.1 8.0----29.91- 64.8-----
2024-06-22 03:00 pmENE 4.1 7.0----29.91-0.07 64.9-----
2024-06-22 02:50 pmENE 4.1 6.0----29.91- 64.8-----
2024-06-22 02:40 pmENE 5.1 7.0----29.91- 64.6-----
2024-06-22 02:30 pm E 4.1 7.0----29.92- 64.8-----
2024-06-22 02:20 pmENE 5.1 8.9----29.93- 64.6-----
2024-06-22 02:10 pmENE 2.9 8.0----29.93- 64.8-----
2024-06-22 02:00 pmENE 1.9 2.9----29.94-0.04 64.9-----
2024-06-22 01:50 pmENE 4.1 7.0----29.93- 65.1-----
2024-06-22 01:40 pmENE 5.1 7.0----29.92- 65.5-----
2024-06-22 01:30 pmENE 2.9 6.0----29.93- 66.4-----
2024-06-22 01:20 pmENE 2.9 6.0----29.94- 66.0-----
2024-06-22 01:10 pmENE 2.9 4.1----29.95- 66.4-----
2024-06-22 01:00 pmENE 1.9 2.9----29.97-0.04 65.7-----
2024-06-22 12:50 pm- 0.0 5.1----29.96- 65.5-----
2024-06-22 12:40 pmENE 4.1 6.0----29.95- 64.9-----
2024-06-22 12:30 pmENE 2.9 6.0----29.95- 65.1-----
2024-06-22 12:20 pm NE 1.9 6.0----29.96- 64.8-----
2024-06-22 12:10 pm NE 4.1 6.0----29.97- 64.4-----
2024-06-22 12:00 pmENE 2.9 7.0----29.98-0.04 64.8-----
2024-06-22 11:50 amENE 4.1 8.9----29.97- 64.4-----
2024-06-22 11:40 amENE 5.1 8.0----29.97- 64.4-----
2024-06-22 11:30 am E 2.9 6.0----29.99- 64.6-----
2024-06-22 11:20 amENE 4.1 6.0----29.98- 64.9-----
2024-06-22 11:10 amENE 2.9 8.0----29.98- 65.3-----
2024-06-22 11:00 amENE 4.1 6.0----29.98-0.06 65.7-----
2024-06-22 10:50 amENE 2.9 4.1----30.00- 65.8-----
2024-06-22 10:40 am- 0.0 2.9----30.01- 65.7-----
2024-06-22 10:30 am- 0.0 5.1----30.01- 64.9-----
2024-06-22 10:20 amNNE 2.9 5.1----29.99- 64.4-----
2024-06-22 10:10 amENE 1.9 5.1----29.99- 64.2-----
2024-06-22 10:00 amENE 1.9 6.0----30.01-0.03 64.0-----
2024-06-22 09:50 amENE 4.1 6.0----30.02- 63.9-----
2024-06-22 09:40 am E 5.1 8.0----30.01- 63.9-----
2024-06-22 09:30 am E 5.1 8.0----30.00- 64.0-----
2024-06-22 09:20 am E 5.1 8.9----30.01- 63.9-----
2024-06-22 09:10 am E 6.0 8.9----30.02- 63.9-----
2024-06-22 09:00 am E 6.0 8.0----30.02-0.04 63.7-----
2024-06-22 08:50 am E 7.0 9.9----30.01- 63.5-----
2024-06-22 08:40 am E 6.0 8.9----30.02- 63.3-----
2024-06-22 08:30 amENE 6.0 8.9----30.03- 63.1-----
2024-06-22 08:20 amENE 5.1 8.9----30.03- 62.8-----
2024-06-22 08:10 amENE 4.1 8.9----30.03- 62.8-----
2024-06-22 08:00 amENE 4.1 8.0----30.04-0.02 63.0-----
2024-06-22 07:50 am NE 6.0 8.9----30.04- 62.8-----
2024-06-22 07:40 am NE 4.1 8.9----30.03- 62.6-----
2024-06-22 07:30 amENE 4.1 8.0----30.04- 62.4-----
2024-06-22 07:20 am NE 4.1 8.0----30.05- 62.6-----
2024-06-22 07:10 amENE 6.0 9.9----30.04- 62.4-----
2024-06-22 07:00 amENE 7.0 9.9----30.04-0.03 62.4-----
2024-06-22 06:50 am NE 5.1 9.9----30.05- 62.4-----
2024-06-22 06:40 amENE 6.0 9.9----30.05- 62.2-----
2024-06-22 06:30 amENE 5.1 8.0----30.05- 62.4-----
2024-06-22 06:20 amENE 4.1 7.0----30.07- 62.4-----
2024-06-22 06:10 am NE 2.9 4.1----30.07- 62.6-----
2024-06-22 06:00 amNNE 1.9 5.1----30.06-0.03 62.6-----
2024-06-22 05:50 amNNE 1.9 6.0----30.07- 62.6-----
2024-06-22 05:40 amNNE 4.1 7.0----30.07- 62.4-----
2024-06-22 05:30 amENE 4.1 7.0----30.05- 62.4-----
2024-06-22 05:20 amENE 4.1 6.0----30.06- 62.4-----
2024-06-22 05:10 am E 4.1 7.0----30.07- 62.8-----
2024-06-22 05:00 am E 4.1 7.0----30.06-0.04 62.6-----
2024-06-22 04:50 amENE 4.1 6.0----30.06- 62.8-----
2024-06-22 04:40 amESE 1.9 6.0----30.07- 63.0-----
2024-06-22 04:30 am E 4.1 7.0----30.07- 63.0-----
2024-06-22 04:20 am E 6.0 7.0----30.06- 62.8-----
2024-06-22 04:10 amENE 4.1 6.0----30.07- 62.4-----
2024-06-22 04:00 amENE 4.1 6.0----30.07-0.02 62.2-----
2024-06-22 03:50 amENE 4.1 6.0----30.07- 62.2-----
2024-06-22 03:40 amENE 4.1 6.0----30.08- 62.1-----
2024-06-22 03:30 amENE 2.9 6.0----30.09- 62.1-----
2024-06-22 03:20 amENE 4.1 6.0----30.07- 62.1-----
2024-06-22 03:10 am NE 1.9 7.0----30.08- 62.1-----
2024-06-22 03:00 am NE 4.1 8.0----30.09+0.00 62.1-----
2024-06-22 02:50 amENE 6.0 8.9----30.07- 62.4-----
2024-06-22 02:40 am E 5.1 8.0----30.08- 62.6-----
2024-06-22 02:30 amENE 2.9 6.0----30.09- 62.6-----
2024-06-22 02:20 am NE 1.9 5.1----30.09- 62.6-----
2024-06-22 02:10 am NE 2.9 5.1----30.09- 62.6-----
2024-06-22 02:00 am NE 1.9 6.0----30.10-0.02 62.8-----
2024-06-22 01:50 am NE 2.9 6.0----30.10- 63.1-----
2024-06-22 01:40 am N 4.1 6.0----30.09- 63.0-----
2024-06-22 01:30 am N 4.1 8.9----30.10- 63.0-----
2024-06-22 01:20 am N 4.1 7.0----30.11- 63.1-----
2024-06-22 01:10 am N 5.1 8.0----30.10- 62.8-----
2024-06-22 01:00 am NE 1.9 7.0----30.09-0.05 62.6-----
2024-06-22 12:50 am E 4.1 6.0----30.10- 62.6-----
2024-06-22 12:40 amENE 2.9 6.0----30.09- 62.8-----
2024-06-22 12:30 amENE 2.9 6.0----30.09- 62.6-----
2024-06-22 12:20 am NE 1.9 4.1----30.11- 62.4-----
2024-06-22 12:10 amENE 2.9 6.0----30.10- 62.4-----
2024-06-22 12:00 amENE 2.9 6.0----30.09-0.04 62.6-----
2024-06-21 11:50 pm E 4.1 7.0----30.10- 62.8-----
2024-06-21 11:40 pmENE 1.9 4.1----30.12- 62.6-----
2024-06-21 11:30 pmENE 2.9 6.0----30.11- 62.8-----
2024-06-21 11:20 pm E 4.1 7.0----30.11- 62.8-----
2024-06-21 11:10 pmENE 4.1 8.0----30.12- 62.6-----
2024-06-21 11:00 pm NE 2.9 6.0----30.12-0.01 62.8-----
2024-06-21 10:50 pmENE 2.9 5.1----30.12- 63.0-----
2024-06-21 10:40 pm E 4.1 5.1----30.13- 63.3-----
2024-06-21 10:30 pm E 2.9 5.1----30.14- 63.7-----
2024-06-21 10:20 pm E 1.9 5.1----30.14- 63.9-----
2024-06-21 10:10 pm E 2.9 7.0----30.12- 64.0-----
2024-06-21 10:00 pm E 2.9 4.1----30.14-0.01 64.0-----
2024-06-21 09:50 pm NE 1.0 1.9----30.15- 64.0-----